KLM1951 SVMI-TNCM

Flight info

Callsign KLM1951
Flight time 1h 14m
Altitude 33000
Route MIDUR UN779 SILVA UM576 MILOK M576 DANDE ULUBA1
Aircraft B780/M-V/N

Departure

Time 2026-05-06 00:12
Airport Maiquetía Simón Bolívar International Airport (SVMI)

Arrival

Time 2026-05-06 01:26
Airport Princess Juliana International Airport (TNCM)
Time Latitude Longitude Altitude Speed Heading
2026-05-05 23:59 10.59818 -67.00842 253 ft 0 kts 179°
2026-05-06 00:04 10.59821 -67.00842 253 ft 1 kts 179°
2026-05-06 00:04 10.59836 -67.00842 253 ft 3 kts 182°
2026-05-06 00:05 10.59871 -67.00826 253 ft 3 kts 230°
2026-05-06 00:05 10.59881 -67.00808 253 ft 3 kts 253°
2026-05-06 00:05 10.59883 -67.00787 253 ft 3 kts 269°
2026-05-06 00:06 10.59884 -67.00767 253 ft 3 kts 269°
2026-05-06 00:06 10.59884 -67.00802 253 ft 14 kts 271°
2026-05-06 00:06 10.59884 -67.00824 253 ft 0 kts 272°
2026-05-06 00:07 10.59886 -67.00833 253 ft 5 kts 284°
2026-05-06 00:08 10.59900 -67.00882 253 ft 9 kts 280°
2026-05-06 00:08 10.59901 -67.00950 253 ft 9 kts 269°
2026-05-06 00:08 10.59899 -67.01008 253 ft 7 kts 267°
2026-05-06 00:08 10.59897 -67.01049 253 ft 5 kts 267°
2026-05-06 00:09 10.59895 -67.01081 253 ft 4 kts 266°
2026-05-06 00:09 10.59893 -67.01109 253 ft 4 kts 266°
2026-05-06 00:09 10.59892 -67.01142 253 ft 6 kts 268°
2026-05-06 00:09 10.59897 -67.01199 253 ft 10 kts 295°
2026-05-06 00:10 10.59977 -67.01229 253 ft 16 kts 352°
2026-05-06 00:10 10.60119 -67.01247 253 ft 25 kts 356°
2026-05-06 00:10 10.60276 -67.01250 253 ft 16 kts 359°
2026-05-06 00:10 10.60362 -67.01239 253 ft 4 kts 48°
2026-05-06 00:11 10.60369 -67.01213 253 ft 7 kts 82°
2026-05-06 00:11 10.60376 -67.01118 253 ft 28 kts 89°
2026-05-06 00:11 10.60392 -67.00661 253 ft 101 kts 88°
2026-05-06 00:11 10.60426 -66.99684 255 ft 176 kts 88°
2026-05-06 00:12 10.60475 -66.98258 629 ft 228 kts 88°
2026-05-06 00:12 10.60581 -66.96513 1642 ft 261 kts 84°
2026-05-06 00:12 10.60986 -66.94654 2949 ft 283 kts 76°
2026-05-06 00:12 10.61710 -66.92640 3793 ft 320 kts 68°
2026-05-06 00:13 10.62666 -66.90591 4636 ft 312 kts 59°
2026-05-06 00:13 10.64140 -66.88948 5369 ft 330 kts 40°
2026-05-06 00:13 10.66129 -66.87767 5875 ft 328 kts 21°
2026-05-06 00:13 10.68316 -66.87304 6367 ft 320 kts
2026-05-06 00:14 10.70546 -66.87508 6905 ft 321 kts 348°
2026-05-06 00:14 10.72712 -66.88042 7416 ft 319 kts 341°
2026-05-06 00:14 10.74832 -66.88717 7920 ft 318 kts 338°
2026-05-06 00:14 10.76912 -66.89444 8417 ft 319 kts 337°
2026-05-06 00:15 10.79020 -66.90203 8922 ft 320 kts 337°
2026-05-06 00:15 10.81117 -66.90958 9421 ft 322 kts 337°
2026-05-06 00:15 10.83250 -66.91717 9926 ft 324 kts 337°
2026-05-06 00:15 10.85372 -66.92458 10423 ft 326 kts 338°
2026-05-06 00:16 10.87544 -66.93197 10928 ft 328 kts 338°
2026-05-06 00:16 10.89720 -66.93914 11428 ft 331 kts 339°
2026-05-06 00:16 10.91960 -66.94568 11932 ft 334 kts 341°
2026-05-06 00:16 10.94242 -66.95094 12434 ft 338 kts 345°
2026-05-06 00:17 10.96565 -66.95481 12934 ft 342 kts 348°
2026-05-06 00:17 10.98953 -66.95739 13439 ft 346 kts 351°
2026-05-06 00:17 11.01366 -66.95880 13942 ft 349 kts 354°
2026-05-06 00:17 11.03796 -66.95926 14442 ft 352 kts 356°
2026-05-06 00:18 11.06272 -66.95895 14948 ft 356 kts 357°
2026-05-06 00:18 11.08765 -66.95804 15452 ft 359 kts 359°
2026-05-06 00:18 11.11244 -66.95669 15949 ft 361 kts 359°
2026-05-06 00:18 11.13766 -66.95499 16451 ft 364 kts
2026-05-06 00:19 11.16306 -66.95304 16953 ft 367 kts
2026-05-06 00:19 11.18870 -66.95090 17456 ft 370 kts
2026-05-06 00:19 11.21426 -66.94865 17954 ft 373 kts
2026-05-06 00:19 11.24044 -66.94625 18461 ft 375 kts
2026-05-06 00:20 11.26647 -66.94381 18961 ft 378 kts
2026-05-06 00:20 11.29262 -66.94133 19460 ft 381 kts
2026-05-06 00:20 11.31944 -66.93876 19968 ft 384 kts
2026-05-06 00:20 11.34616 -66.93618 20470 ft 387 kts
2026-05-06 00:21 11.37294 -66.93358 20969 ft 390 kts
2026-05-06 00:21 11.40015 -66.93094 21473 ft 393 kts
2026-05-06 00:21 11.42716 -66.92832 21970 ft 395 kts
2026-05-06 00:21 11.45492 -66.92562 22477 ft 398 kts
2026-05-06 00:22 11.48237 -66.92295 22974 ft 401 kts
2026-05-06 00:22 11.51045 -66.92022 23519 ft 404 kts
2026-05-06 00:22 11.53857 -66.91748 24130 ft 410 kts
2026-05-06 00:22 11.56711 -66.91472 24753 ft 418 kts
2026-05-06 00:23 11.59628 -66.91190 25381 ft 423 kts
2026-05-06 00:23 11.62591 -66.90903 26012 ft 428 kts
2026-05-06 00:23 11.65559 -66.90614 26637 ft 433 kts
2026-05-06 00:23 11.68566 -66.90321 27263 ft 437 kts
2026-05-06 00:24 11.71628 -66.90021 27895 ft 441 kts
2026-05-06 00:24 11.74664 -66.89724 28515 ft 445 kts
2026-05-06 00:24 11.77761 -66.89436 29142 ft 449 kts
2026-05-06 00:24 11.80926 -66.89156 29776 ft 454 kts
2026-05-06 00:25 11.84065 -66.88887 30399 ft 458 kts
2026-05-06 00:25 11.87253 -66.88620 31026 ft 462 kts
2026-05-06 00:25 11.90488 -66.88353 31656 ft 466 kts
2026-05-06 00:25 11.93709 -66.88088 32278 ft 470 kts
2026-05-06 00:26 11.97005 -66.87819 32875 ft 475 kts
2026-05-06 00:26 12.00354 -66.87548 32985 ft 490 kts
2026-05-06 00:26 12.03763 -66.87273 33003 ft 496 kts
2026-05-06 00:27 12.10614 -66.86708 33000 ft 489 kts
2026-05-06 00:27 12.17438 -66.86143 33000 ft 494 kts
2026-05-06 00:28 12.24265 -66.85575 33000 ft 494 kts
2026-05-06 00:28 12.31142 -66.85003 33000 ft 495 kts
2026-05-06 00:29 12.36847 -66.84530 33000 ft 495 kts
2026-05-06 00:29 12.43753 -66.83959 33000 ft 495 kts
2026-05-06 00:30 12.50630 -66.83391 33000 ft 495 kts
2026-05-06 00:30 12.57481 -66.82825 33000 ft 495 kts
2026-05-06 00:31 12.64356 -66.82257 33000 ft 495 kts
2026-05-06 00:31 12.71231 -66.81688 33000 ft 495 kts
2026-05-06 00:32 12.78082 -66.81120 33000 ft 495 kts
2026-05-06 00:32 12.84988 -66.80548 33000 ft 495 kts
2026-05-06 00:33 12.91830 -66.79981 33000 ft 495 kts
2026-05-06 00:33 12.98702 -66.79410 33000 ft 495 kts
2026-05-06 00:34 13.05575 -66.78840 33000 ft 495 kts
2026-05-06 00:34 13.12451 -66.78268 33000 ft 495 kts
2026-05-06 00:35 13.19319 -66.77697 33000 ft 495 kts
2026-05-06 00:35 13.26189 -66.77126 33000 ft 495 kts
2026-05-06 00:36 13.33068 -66.76553 33000 ft 495 kts
2026-05-06 00:36 13.39947 -66.75980 33000 ft 495 kts
2026-05-06 00:37 13.46820 -66.75408 33000 ft 495 kts
2026-05-06 00:37 13.53683 -66.74835 33000 ft 495 kts
2026-05-06 00:38 13.60569 -66.74261 33000 ft 495 kts
2026-05-06 00:38 13.67448 -66.73687 33000 ft 495 kts
2026-05-06 00:39 13.74280 -66.73116 33000 ft 495 kts
2026-05-06 00:39 13.81191 -66.72538 33000 ft 495 kts
2026-05-06 00:40 13.88032 -66.71966 33000 ft 495 kts
2026-05-06 00:40 13.94934 -66.71389 33000 ft 495 kts
2026-05-06 00:41 14.01774 -66.70816 33000 ft 495 kts
2026-05-06 00:41 14.08685 -66.70237 33000 ft 495 kts
2026-05-06 00:42 14.15524 -66.69663 33000 ft 495 kts
2026-05-06 00:42 14.22435 -66.69083 33000 ft 495 kts
2026-05-06 00:43 14.29298 -66.68507 33000 ft 495 kts
2026-05-06 00:43 14.36166 -66.67930 33000 ft 495 kts
2026-05-06 00:44 14.43021 -66.67293 32996 ft 497 kts
2026-05-06 00:44 14.46379 -66.66284 32996 ft 504 kts 19°
2026-05-06 00:44 14.49499 -66.64628 33005 ft 510 kts 28°
2026-05-06 00:45 14.55234 -66.60227 33004 ft 512 kts 38°
2026-05-06 00:45 14.60464 -66.55236 33001 ft 512 kts 42°
2026-05-06 00:46 14.65514 -66.50058 33000 ft 512 kts 43°
2026-05-06 00:46 14.70564 -66.44841 33000 ft 511 kts 43°
2026-05-06 00:47 14.75630 -66.39698 33000 ft 511 kts 42°
2026-05-06 00:47 14.80775 -66.34600 33000 ft 511 kts 41°
2026-05-06 00:48 14.85931 -66.29599 33000 ft 511 kts 41°
2026-05-06 00:48 14.91175 -66.24595 33000 ft 510 kts 40°
2026-05-06 00:49 14.96412 -66.19655 33000 ft 510 kts 40°
2026-05-06 00:49 15.01661 -66.14734 33000 ft 510 kts 40°
2026-05-06 00:50 15.06908 -66.09772 33000 ft 510 kts 40°
2026-05-06 00:50 15.12108 -66.04778 33000 ft 511 kts 41°
2026-05-06 00:51 15.17316 -65.99731 33000 ft 511 kts 41°
2026-05-06 00:51 15.22465 -65.94716 33000 ft 511 kts 41°
2026-05-06 00:52 15.27638 -65.89662 33000 ft 511 kts 41°
2026-05-06 00:52 15.32820 -65.84570 33000 ft 511 kts 41°
2026-05-06 00:53 15.37960 -65.79495 33000 ft 511 kts 41°
2026-05-06 00:53 15.43081 -65.74423 33000 ft 511 kts 41°
2026-05-06 00:54 15.48230 -65.69315 33000 ft 511 kts 41°
2026-05-06 00:54 15.53376 -65.64203 33000 ft 511 kts 41°
2026-05-06 00:55 15.58501 -65.59107 33000 ft 511 kts 41°
2026-05-06 00:55 15.63608 -65.54025 33000 ft 511 kts 41°
2026-05-06 00:56 15.67283 -65.50365 33000 ft 511 kts 41°
2026-05-06 00:56 15.69858 -65.47808 32787 ft 514 kts 41°
2026-05-06 00:56 15.72411 -65.45276 32526 ft 509 kts 41°
2026-05-06 00:56 15.74973 -65.42736 32319 ft 503 kts 41°
2026-05-06 00:57 15.77482 -65.40248 32118 ft 501 kts 41°
2026-05-06 00:57 15.80012 -65.37740 31917 ft 500 kts 41°
2026-05-06 00:57 15.82529 -65.35245 31716 ft 497 kts 41°
2026-05-06 00:57 15.85038 -65.32757 31514 ft 495 kts 41°
2026-05-06 00:58 15.87504 -65.30311 31316 ft 494 kts 41°
2026-05-06 00:58 15.89990 -65.27844 31115 ft 492 kts 41°
2026-05-06 00:58 15.92451 -65.25400 30915 ft 491 kts 41°
2026-05-06 00:58 15.94930 -65.22937 30714 ft 489 kts 41°
2026-05-06 00:59 15.97390 -65.20493 30513 ft 487 kts 41°
2026-05-06 00:59 15.99836 -65.18060 30312 ft 486 kts 41°
2026-05-06 00:59 16.02250 -65.15658 30114 ft 484 kts 41°
2026-05-06 00:59 16.04705 -65.13214 29911 ft 483 kts 41°
2026-05-06 01:00 16.07116 -65.10811 29712 ft 481 kts 41°
2026-05-06 01:00 16.09508 -65.08428 29513 ft 480 kts 41°
2026-05-06 01:00 16.11934 -65.06010 29311 ft 478 kts 41°
2026-05-06 01:00 16.14322 -65.03631 29112 ft 477 kts 41°
2026-05-06 01:01 16.16728 -65.01233 28910 ft 476 kts 41°
2026-05-06 01:01 16.19099 -64.98869 28711 ft 474 kts 41°
2026-05-06 01:01 16.21498 -64.96475 28509 ft 473 kts 41°
2026-05-06 01:01 16.23059 -64.94918 28377 ft 472 kts 41°
2026-05-06 01:02 16.26228 -64.91755 28108 ft 470 kts 41°
2026-05-06 01:02 16.28579 -64.89410 27908 ft 469 kts 41°
2026-05-06 01:02 16.30149 -64.87842 27774 ft 468 kts 41°
2026-05-06 01:02 16.32490 -64.85503 27574 ft 466 kts 41°
2026-05-06 01:03 16.34841 -64.83154 27372 ft 465 kts 41°
2026-05-06 01:03 16.37147 -64.80848 27174 ft 464 kts 41°
2026-05-06 01:03 16.39485 -64.78509 26972 ft 462 kts 41°
2026-05-06 01:03 16.41778 -64.76214 26773 ft 461 kts 41°
2026-05-06 01:04 16.44090 -64.73900 26573 ft 459 kts 41°
2026-05-06 01:04 16.46412 -64.71574 26370 ft 458 kts 41°
2026-05-06 01:04 16.48710 -64.69272 26138 ft 457 kts 41°
2026-05-06 01:04 16.51003 -64.66973 25825 ft 456 kts 41°
2026-05-06 01:05 16.53255 -64.64715 25505 ft 452 kts 41°
2026-05-06 01:05 16.55518 -64.62443 25178 ft 449 kts 41°
2026-05-06 01:05 16.57758 -64.60194 24852 ft 446 kts 41°
2026-05-06 01:05 16.60010 -64.57932 24523 ft 443 kts 41°
2026-05-06 01:06 16.62198 -64.55734 24201 ft 441 kts 41°
2026-05-06 01:06 16.64416 -64.53505 23872 ft 438 kts 41°
2026-05-06 01:06 16.66609 -64.51300 23546 ft 436 kts 41°
2026-05-06 01:06 16.68792 -64.49106 23220 ft 434 kts 41°
2026-05-06 01:07 16.70948 -64.46937 22895 ft 432 kts 41°
2026-05-06 01:07 16.73113 -64.44759 22568 ft 429 kts 41°
2026-05-06 01:07 16.75268 -64.42590 22241 ft 427 kts 41°
2026-05-06 01:07 16.77391 -64.40453 21917 ft 425 kts 41°
2026-05-06 01:08 16.79524 -64.38305 21590 ft 423 kts 41°
2026-05-06 01:08 16.81638 -64.36175 21265 ft 421 kts 41°
2026-05-06 01:08 16.83731 -64.34066 20941 ft 419 kts 41°
2026-05-06 01:08 16.85823 -64.31957 20615 ft 417 kts 41°
2026-05-06 01:09 16.87896 -64.29867 20291 ft 415 kts 41°
2026-05-06 01:09 16.89996 -64.27749 19961 ft 413 kts 41°
2026-05-06 01:09 16.92038 -64.25688 19639 ft 411 kts 41°
2026-05-06 01:09 16.94103 -64.23604 19311 ft 409 kts 41°
2026-05-06 01:10 16.96141 -64.21546 18986 ft 407 kts 41°
2026-05-06 01:10 16.98167 -64.19500 18661 ft 405 kts 41°
2026-05-06 01:10 17.00209 -64.17436 18332 ft 403 kts 41°
2026-05-06 01:10 17.02211 -64.15413 18008 ft 401 kts 41°
2026-05-06 01:11 17.04198 -64.13404 17685 ft 399 kts 41°
2026-05-06 01:11 17.06189 -64.11390 17359 ft 397 kts 41°
2026-05-06 01:11 17.08168 -64.09388 17034 ft 395 kts 41°
2026-05-06 01:11 17.10152 -64.07379 16706 ft 393 kts 41°
2026-05-06 01:12 17.12119 -64.05387 16380 ft 392 kts 41°
2026-05-06 01:12 17.14062 -64.03419 16055 ft 390 kts 41°
2026-05-06 01:12 17.16019 -64.01437 15728 ft 388 kts 41°
2026-05-06 01:12 17.17926 -63.99505 15406 ft 386 kts 41°
2026-05-06 01:13 17.19873 -63.97531 15077 ft 384 kts 41°
2026-05-06 01:13 17.21788 -63.95591 14751 ft 382 kts 41°
2026-05-06 01:13 17.23690 -63.93661 14426 ft 380 kts 41°
2026-05-06 01:13 17.25586 -63.91737 14100 ft 378 kts 41°
2026-05-06 01:14 17.29341 -63.87925 13450 ft 375 kts 41°
2026-05-06 01:14 17.31211 -63.86026 13124 ft 373 kts 41°
2026-05-06 01:14 17.33057 -63.84150 12800 ft 371 kts 41°
2026-05-06 01:15 17.34906 -63.82270 12475 ft 369 kts 41°
2026-05-06 01:15 17.36736 -63.80409 12151 ft 368 kts 41°
2026-05-06 01:15 17.38568 -63.78545 11871 ft 365 kts 41°
2026-05-06 01:15 17.40437 -63.76645 11673 ft 380 kts 41°
2026-05-06 01:16 17.42376 -63.74679 11479 ft 396 kts 41°
2026-05-06 01:16 17.44368 -63.72657 11281 ft 402 kts 42°
2026-05-06 01:16 17.46361 -63.70629 11084 ft 405 kts 42°
2026-05-06 01:16 17.48414 -63.68586 10931 ft 405 kts 40°
2026-05-06 01:17 17.50576 -63.66652 10882 ft 405 kts 37°
2026-05-06 01:17 17.52778 -63.64830 10829 ft 406 kts 35°
2026-05-06 01:17 17.55059 -63.63040 10639 ft 407 kts 34°
2026-05-06 01:17 17.57353 -63.61304 10439 ft 406 kts 33°
2026-05-06 01:18 17.59656 -63.59600 10239 ft 405 kts 32°
2026-05-06 01:18 17.61970 -63.57912 10038 ft 404 kts 32°
2026-05-06 01:18 17.64261 -63.56254 9753 ft 404 kts 32°
2026-05-06 01:18 17.66583 -63.54580 9376 ft 402 kts 32°
2026-05-06 01:19 17.68886 -63.52920 8999 ft 400 kts 32°
2026-05-06 01:19 17.71166 -63.51275 8622 ft 391 kts 32°
2026-05-06 01:19 17.73334 -63.49704 8247 ft 375 kts 32°
2026-05-06 01:19 17.75454 -63.48164 7868 ft 363 kts 32°
2026-05-06 01:20 17.77512 -63.46666 7490 ft 356 kts 32°
2026-05-06 01:20 17.79521 -63.45204 7116 ft 352 kts 32°
2026-05-06 01:20 17.81523 -63.43747 6729 ft 349 kts 32°
2026-05-06 01:20 17.83507 -63.42302 6353 ft 346 kts 32°
2026-05-06 01:21 17.85487 -63.40858 5971 ft 340 kts 32°
2026-05-06 01:21 17.87393 -63.39467 5599 ft 333 kts 32°
2026-05-06 01:21 17.89285 -63.38085 5225 ft 327 kts 32°
2026-05-06 01:21 17.91122 -63.36743 5013 ft 318 kts 33°
2026-05-06 01:22 17.92908 -63.35437 4763 ft 309 kts 33°
2026-05-06 01:22 17.94659 -63.34155 4509 ft 301 kts 33°
2026-05-06 01:22 17.96363 -63.32907 4257 ft 296 kts 34°
2026-05-06 01:22 17.98023 -63.31690 4010 ft 292 kts 34°
2026-05-06 01:23 17.99566 -63.30319 3780 ft 290 kts 45°
2026-05-06 01:23 18.00716 -63.28597 3593 ft 284 kts 58°
2026-05-06 01:23 18.01516 -63.26745 3396 ft 273 kts 68°
2026-05-06 01:23 18.02065 -63.24862 3206 ft 264 kts 75°
2026-05-06 01:24 18.02441 -63.23033 3071 ft 254 kts 79°
2026-05-06 01:24 18.02723 -63.21225 2996 ft 243 kts 81°
2026-05-06 01:24 18.02961 -63.19489 2640 ft 235 kts 82°
2026-05-06 01:24 18.03188 -63.17800 1832 ft 235 kts 82°
2026-05-06 01:25 18.03412 -63.16095 1120 ft 231 kts 82°
2026-05-06 01:25 18.03616 -63.14479 703 ft 214 kts 82°
2026-05-06 01:25 18.03806 -63.12980 277 ft 202 kts 82°
2026-05-06 01:25 18.03906 -63.12248 87 ft 197 kts 82°
2026-05-06 01:26 18.04034 -63.11313 18 ft 161 kts 82°
2026-05-06 01:26 18.04128 -63.10629 18 ft 53 kts 82°
2026-05-06 01:26 18.04176 -63.10283 18 ft 36 kts 81°
2026-05-06 01:26 18.04197 -63.10122 18 ft 14 kts 92°
2026-05-06 01:27 18.04193 -63.10051 18 ft 7 kts 94°
2026-05-06 01:27 18.04189 -63.09989 18 ft 13 kts 92°
2026-05-06 01:27 18.04210 -63.09954 18 ft 2 kts 10°
2026-05-06 01:27 18.04225 -63.09959 18 ft 2 kts 329°
2026-05-06 01:28 18.04227 -63.10045 18 ft 29 kts 254°
2026-05-06 01:28 18.04155 -63.10439 18 ft 75 kts 262°
2026-05-06 01:28 18.04095 -63.10883 18 ft 46 kts 262°
2026-05-06 01:28 18.04057 -63.11166 18 ft 33 kts 262°
2026-05-06 01:29 18.04069 -63.11278 18 ft 7 kts 308°
2026-05-06 01:29 18.04085 -63.11292 18 ft 0 kts 329°
2026-05-06 01:29 18.04096 -63.11297 18 ft 5 kts 341°
2026-05-06 01:29 18.04163 -63.11311 18 ft 12 kts 351°
2026-05-06 01:30 18.04212 -63.11319 18 ft 3 kts 355°
2026-05-06 01:30 18.04217 -63.11319 18 ft 1 kts 356°
2026-05-06 01:30 18.04254 -63.11316 18 ft 10 kts 14°
2026-05-06 01:30 18.04306 -63.11296 18 ft 3 kts 356°
2026-05-06 01:31 18.04334 -63.11298 18 ft 7 kts 354°
2026-05-06 01:31 18.04338 -63.11299 18 ft 0 kts 352°